Year,Month,Day,Hour,Minute,Value (Times are PST for temperature in C)
2015,01,18,00,00,6.70
2015,01,18,00,01,6.70
2015,01,18,00,02,6.70
2015,01,18,00,03,6.70
2015,01,18,00,04,6.70
2015,01,18,00,05,6.70
2015,01,18,00,06,6.70
2015,01,18,00,07,6.70
2015,01,18,00,08,6.70
2015,01,18,00,09,6.70
2015,01,18,00,10,6.70
2015,01,18,00,11,6.70
2015,01,18,00,12,6.70
2015,01,18,00,13,6.70
2015,01,18,00,14,6.70
2015,01,18,00,15,6.70
2015,01,18,00,16,6.70
2015,01,18,00,17,6.70
2015,01,18,00,18,6.80
2015,01,18,00,19,6.80
2015,01,18,00,20,6.80
2015,01,18,00,21,6.80
2015,01,18,00,22,6.80
2015,01,18,00,23,6.80
2015,01,18,00,24,6.80
2015,01,18,00,25,6.80
2015,01,18,00,26,6.80
2015,01,18,00,27,6.80
2015,01,18,00,28,6.80
2015,01,18,00,29,6.80
2015,01,18,00,30,6.90
2015,01,18,00,31,6.90
2015,01,18,00,32,6.90
2015,01,18,00,33,6.90
2015,01,18,00,34,6.90
2015,01,18,00,35,6.90
2015,01,18,00,36,6.90
2015,01,18,00,37,7.00
2015,01,18,00,38,7.00
2015,01,18,00,39,7.00
2015,01,18,00,40,7.00
2015,01,18,00,41,7.00
2015,01,18,00,42,7.00
2015,01,18,00,43,7.00
2015,01,18,00,44,7.00
2015,01,18,00,45,7.00
2015,01,18,00,46,7.00
2015,01,18,00,47,7.00
2015,01,18,00,48,7.00
2015,01,18,00,49,7.00
2015,01,18,00,50,7.00
2015,01,18,00,51,7.00
2015,01,18,00,52,7.00
2015,01,18,00,53,7.10
2015,01,18,00,54,7.00
2015,01,18,00,55,7.10
2015,01,18,00,56,7.10
2015,01,18,00,57,7.00
2015,01,18,00,58,7.10
2015,01,18,00,59,7.10
2015,01,18,01,00,7.10
2015,01,18,01,01,7.10
2015,01,18,01,02,7.10
2015,01,18,01,03,7.10
2015,01,18,01,04,7.10
2015,01,18,01,05,7.10
2015,01,18,01,06,7.10
2015,01,18,01,07,7.10
2015,01,18,01,08,7.10
2015,01,18,01,09,7.10
2015,01,18,01,10,7.10
2015,01,18,01,11,7.10
2015,01,18,01,12,7.10
2015,01,18,01,13,7.10
2015,01,18,01,14,7.10
2015,01,18,01,15,7.10
2015,01,18,01,16,7.10
2015,01,18,01,17,7.10
2015,01,18,01,18,7.10
2015,01,18,01,19,7.10
2015,01,18,01,20,7.10
2015,01,18,01,21,7.10
2015,01,18,01,22,7.10
2015,01,18,01,23,7.10
2015,01,18,01,24,7.10
2015,01,18,01,25,7.10
2015,01,18,01,26,7.10
2015,01,18,01,27,7.10
2015,01,18,01,28,7.10
2015,01,18,01,29,7.10
2015,01,18,01,30,7.10
2015,01,18,01,31,7.10
2015,01,18,01,32,7.10
2015,01,18,01,33,7.10
2015,01,18,01,34,7.10
2015,01,18,01,35,7.10
2015,01,18,01,36,7.10
2015,01,18,01,37,7.10
2015,01,18,01,38,7.10
2015,01,18,01,39,7.10
2015,01,18,01,40,7.10
2015,01,18,01,41,7.10
2015,01,18,01,42,7.10
2015,01,18,01,43,7.10
2015,01,18,01,44,7.10
2015,01,18,01,45,7.10
2015,01,18,01,46,7.10
2015,01,18,01,47,7.10
2015,01,18,01,48,7.10
2015,01,18,01,49,7.10
2015,01,18,01,50,7.10
2015,01,18,01,51,7.10
2015,01,18,01,52,7.10
2015,01,18,01,53,7.10
2015,01,18,01,54,7.10
2015,01,18,01,55,7.10
2015,01,18,01,56,7.00
2015,01,18,01,57,7.00
2015,01,18,01,58,7.00
2015,01,18,01,59,7.00
2015,01,18,02,00,7.00
2015,01,18,02,01,7.00
2015,01,18,02,02,7.00
2015,01,18,02,03,7.00
2015,01,18,02,04,6.90
2015,01,18,02,05,6.90
2015,01,18,02,06,6.90
2015,01,18,02,07,6.90
2015,01,18,02,08,6.90
2015,01,18,02,09,6.90
2015,01,18,02,10,6.90
2015,01,18,02,11,6.90
2015,01,18,02,12,6.90
2015,01,18,02,13,6.90
2015,01,18,02,14,6.90
2015,01,18,02,15,6.90
2015,01,18,02,16,6.90
2015,01,18,02,17,6.90
2015,01,18,02,18,6.90
2015,01,18,02,19,6.90
2015,01,18,02,20,6.90
2015,01,18,02,21,6.90
2015,01,18,02,22,6.90
2015,01,18,02,23,6.90
2015,01,18,02,24,6.90
2015,01,18,02,25,6.90
2015,01,18,02,26,6.90
2015,01,18,02,27,6.90
2015,01,18,02,28,6.90
2015,01,18,02,29,6.90
2015,01,18,02,30,6.90
2015,01,18,02,31,6.90
2015,01,18,02,32,6.90
2015,01,18,02,33,6.90
2015,01,18,02,34,6.90
2015,01,18,02,35,6.90
2015,01,18,02,36,6.90
2015,01,18,02,37,6.90
2015,01,18,02,38,6.90
2015,01,18,02,39,6.90
2015,01,18,02,40,6.90
2015,01,18,02,41,6.90
2015,01,18,02,42,6.90
2015,01,18,02,43,6.90
2015,01,18,02,44,6.90
2015,01,18,02,45,6.90
2015,01,18,02,46,7.00
2015,01,18,02,47,7.00
2015,01,18,02,48,7.00
2015,01,18,02,49,7.00
2015,01,18,02,50,7.00
2015,01,18,02,51,7.00
2015,01,18,02,52,7.00
2015,01,18,02,53,7.00
2015,01,18,02,54,7.00
2015,01,18,02,55,7.00
2015,01,18,02,56,7.00
2015,01,18,02,57,7.10
2015,01,18,02,58,7.10
2015,01,18,02,59,7.10
2015,01,18,03,00,7.10
2015,01,18,03,01,7.10
2015,01,18,03,02,7.10
2015,01,18,03,03,7.20
2015,01,18,03,04,7.20
2015,01,18,03,05,7.20
2015,01,18,03,06,7.20
2015,01,18,03,07,7.20
2015,01,18,03,08,7.20
2015,01,18,03,09,7.20
2015,01,18,03,10,7.20
2015,01,18,03,11,7.20
2015,01,18,03,12,7.20
2015,01,18,03,13,7.20
2015,01,18,03,14,7.20
2015,01,18,03,15,7.20
2015,01,18,03,16,7.20
2015,01,18,03,17,7.20
2015,01,18,03,18,7.30
2015,01,18,03,19,7.30
2015,01,18,03,20,7.40
2015,01,18,03,21,7.40
2015,01,18,03,22,7.40
2015,01,18,03,23,7.50
2015,01,18,03,24,7.50
2015,01,18,03,25,7.50
2015,01,18,03,26,7.60
2015,01,18,03,27,7.60
2015,01,18,03,28,7.60
2015,01,18,03,29,7.70
2015,01,18,03,30,7.70
2015,01,18,03,31,7.70
2015,01,18,03,32,7.80
2015,01,18,03,33,7.80
2015,01,18,03,34,7.70
2015,01,18,03,35,7.70
2015,01,18,03,36,7.70
2015,01,18,03,37,7.70
2015,01,18,03,38,7.70
2015,01,18,03,39,7.70
2015,01,18,03,40,7.70
2015,01,18,03,41,7.70
2015,01,18,03,42,7.70
2015,01,18,03,43,7.70
2015,01,18,03,44,7.70
2015,01,18,03,45,7.70
2015,01,18,03,46,7.70
2015,01,18,03,47,7.80
2015,01,18,03,48,7.80
2015,01,18,03,49,7.80
2015,01,18,03,50,7.80
2015,01,18,03,51,7.80
2015,01,18,03,52,7.80
2015,01,18,03,53,7.80
2015,01,18,03,54,7.80
2015,01,18,03,55,7.80
2015,01,18,03,56,7.80
2015,01,18,03,57,7.80
2015,01,18,03,58,7.80
2015,01,18,03,59,7.80
2015,01,18,04,00,7.80
2015,01,18,04,01,7.80
2015,01,18,04,02,7.80
2015,01,18,04,03,7.80
2015,01,18,04,04,7.90
2015,01,18,04,05,7.90
2015,01,18,04,06,7.90
2015,01,18,04,07,7.90
2015,01,18,04,08,7.80
2015,01,18,04,09,7.90
2015,01,18,04,10,7.90
2015,01,18,04,11,7.90
2015,01,18,04,12,7.90
2015,01,18,04,13,7.90
2015,01,18,04,14,7.90
2015,01,18,04,15,7.90
2015,01,18,04,16,7.90
2015,01,18,04,17,7.90
2015,01,18,04,18,8.00
2015,01,18,04,19,8.00
2015,01,18,04,20,8.00
2015,01,18,04,21,8.00
2015,01,18,04,22,8.00
2015,01,18,04,23,8.00
2015,01,18,04,24,8.00
2015,01,18,04,25,8.00
2015,01,18,04,26,8.00
2015,01,18,04,27,8.00
2015,01,18,04,28,8.00
2015,01,18,04,29,8.00
2015,01,18,04,30,8.00
2015,01,18,04,31,8.00
2015,01,18,04,32,8.00
2015,01,18,04,33,8.00
2015,01,18,04,34,8.00
2015,01,18,04,35,8.00
2015,01,18,04,36,7.90
2015,01,18,04,37,8.00
2015,01,18,04,38,8.00
2015,01,18,04,39,8.00
2015,01,18,04,40,8.00
2015,01,18,04,41,8.00
2015,01,18,04,42,8.00
2015,01,18,04,43,8.00
2015,01,18,04,44,8.00
2015,01,18,04,45,8.00
2015,01,18,04,46,8.00
2015,01,18,04,47,8.00
2015,01,18,04,48,8.10
2015,01,18,04,49,8.10
2015,01,18,04,50,8.10
2015,01,18,04,51,8.10
2015,01,18,04,52,8.10
2015,01,18,04,53,8.10
2015,01,18,04,54,8.10
2015,01,18,04,55,8.10
2015,01,18,04,56,8.10
2015,01,18,04,57,8.10
2015,01,18,04,58,8.10
2015,01,18,04,59,8.10
2015,01,18,05,00,8.10
2015,01,18,05,01,8.10
2015,01,18,05,02,8.10
2015,01,18,05,03,8.10
2015,01,18,05,04,8.10
2015,01,18,05,05,8.10
2015,01,18,05,06,8.10
2015,01,18,05,07,8.10
2015,01,18,05,08,8.10
2015,01,18,05,09,8.10
2015,01,18,05,10,8.10
2015,01,18,05,11,8.10
2015,01,18,05,12,8.10
2015,01,18,05,13,8.10
2015,01,18,05,14,8.10
2015,01,18,05,15,8.10
2015,01,18,05,16,8.10
2015,01,18,05,17,8.10
2015,01,18,05,18,8.10
2015,01,18,05,19,8.10
2015,01,18,05,20,8.10
2015,01,18,05,21,8.10
2015,01,18,05,22,8.10
2015,01,18,05,23,8.10
2015,01,18,05,24,8.10
2015,01,18,05,25,8.20
2015,01,18,05,26,8.20
2015,01,18,05,27,8.20
2015,01,18,05,28,8.20
2015,01,18,05,29,8.10
2015,01,18,05,30,8.10
2015,01,18,05,31,8.10
2015,01,18,05,32,8.10
2015,01,18,05,33,8.10
2015,01,18,05,34,8.10
2015,01,18,05,35,8.10
2015,01,18,05,36,8.10
2015,01,18,05,37,8.10
2015,01,18,05,38,8.10
2015,01,18,05,39,8.10
2015,01,18,05,40,8.10
2015,01,18,05,41,8.10
2015,01,18,05,42,8.10
2015,01,18,05,43,8.10
2015,01,18,05,44,8.10
2015,01,18,05,45,8.10
2015,01,18,05,46,8.10
2015,01,18,05,47,8.10
2015,01,18,05,48,8.10
2015,01,18,05,49,8.10
2015,01,18,05,50,8.10
2015,01,18,05,51,8.10
2015,01,18,05,52,8.10
2015,01,18,05,53,8.10
2015,01,18,05,54,8.10
2015,01,18,05,55,8.10
2015,01,18,05,56,8.00
2015,01,18,05,57,8.00
2015,01,18,05,58,8.00
2015,01,18,05,59,8.00
2015,01,18,06,00,8.00
2015,01,18,06,01,8.00
2015,01,18,06,02,8.00
2015,01,18,06,03,8.00
2015,01,18,06,04,8.00
2015,01,18,06,05,8.00
2015,01,18,06,06,8.00
2015,01,18,06,07,8.00
2015,01,18,06,08,8.10
2015,01,18,06,09,8.10
2015,01,18,06,10,8.10
2015,01,18,06,11,8.10
2015,01,18,06,12,8.10
2015,01,18,06,13,8.10
2015,01,18,06,14,8.10
2015,01,18,06,15,8.10
2015,01,18,06,16,8.10
2015,01,18,06,17,8.10
2015,01,18,06,18,8.10
2015,01,18,06,19,8.10
2015,01,18,06,20,8.10
2015,01,18,06,21,8.10
2015,01,18,06,22,8.10
2015,01,18,06,23,8.10
2015,01,18,06,24,8.10
2015,01,18,06,25,8.10
2015,01,18,06,26,8.10
2015,01,18,06,27,8.10
2015,01,18,06,28,8.10
2015,01,18,06,29,8.10
2015,01,18,06,30,8.10
2015,01,18,06,31,8.10
2015,01,18,06,32,8.10
2015,01,18,06,33,8.10
2015,01,18,06,34,8.10
2015,01,18,06,35,8.10
2015,01,18,06,36,8.10
2015,01,18,06,37,8.10
2015,01,18,06,38,8.20
2015,01,18,06,39,8.20
2015,01,18,06,40,8.20
2015,01,18,06,41,8.20
2015,01,18,06,42,8.20
2015,01,18,06,43,8.10
2015,01,18,06,44,8.10
2015,01,18,06,45,8.20
2015,01,18,06,46,8.20
2015,01,18,06,47,8.20
2015,01,18,06,48,8.10
2015,01,18,06,49,8.10
2015,01,18,06,50,8.10
2015,01,18,06,51,8.10
2015,01,18,06,52,8.10
2015,01,18,06,53,8.10
2015,01,18,06,54,8.10
2015,01,18,06,55,8.20
2015,01,18,06,56,8.20
2015,01,18,06,57,8.20
2015,01,18,06,58,8.20
2015,01,18,06,59,8.20
2015,01,18,07,00,8.20
2015,01,18,07,01,8.10
2015,01,18,07,02,8.10
2015,01,18,07,03,8.10
2015,01,18,07,04,8.10
2015,01,18,07,05,8.10
2015,01,18,07,06,8.10
2015,01,18,07,07,8.10
2015,01,18,07,08,8.10
2015,01,18,07,09,8.10
2015,01,18,07,10,8.10
2015,01,18,07,11,8.10
2015,01,18,07,12,8.10
2015,01,18,07,13,8.10
2015,01,18,07,14,8.10
2015,01,18,07,15,8.10
2015,01,18,07,16,8.10
2015,01,18,07,17,8.10
2015,01,18,07,18,8.10
2015,01,18,07,19,8.10
2015,01,18,07,20,8.10
2015,01,18,07,21,8.10
2015,01,18,07,22,8.10
2015,01,18,07,23,8.20
2015,01,18,07,24,8.20
2015,01,18,07,25,8.30
2015,01,18,07,26,8.30
2015,01,18,07,27,8.30
2015,01,18,07,28,8.30
2015,01,18,07,29,8.40
2015,01,18,07,30,8.40
2015,01,18,07,31,8.40
2015,01,18,07,32,8.40
2015,01,18,07,33,8.40
2015,01,18,07,34,8.40
2015,01,18,07,35,8.50
2015,01,18,07,36,8.60
2015,01,18,07,37,8.70
2015,01,18,07,38,8.70
2015,01,18,07,39,8.80
2015,01,18,07,40,8.80
2015,01,18,07,41,8.80
2015,01,18,07,42,8.80
2015,01,18,07,43,8.80
2015,01,18,07,44,8.80
2015,01,18,07,45,8.90
2015,01,18,07,46,8.80
2015,01,18,07,47,8.80
2015,01,18,07,48,8.80
2015,01,18,07,49,8.80
2015,01,18,07,50,8.80
2015,01,18,07,51,8.70
2015,01,18,07,52,8.70
2015,01,18,07,53,8.70
2015,01,18,07,54,8.70
2015,01,18,07,55,8.60
2015,01,18,07,56,8.60
2015,01,18,07,57,8.60
2015,01,18,07,58,8.60
2015,01,18,07,59,8.60
2015,01,18,08,00,8.50
2015,01,18,08,01,8.50
2015,01,18,08,02,8.50
2015,01,18,08,03,8.50
2015,01,18,08,04,8.50
2015,01,18,08,05,8.50
2015,01,18,08,06,8.40
2015,01,18,08,07,8.40
2015,01,18,08,08,8.40
2015,01,18,08,09,8.40
2015,01,18,08,10,8.40
2015,01,18,08,11,8.40
2015,01,18,08,12,8.40
2015,01,18,08,13,8.50
2015,01,18,08,14,8.50
2015,01,18,08,15,8.50
2015,01,18,08,16,8.50
2015,01,18,08,17,8.60
2015,01,18,08,18,8.70
2015,01,18,08,19,8.90
2015,01,18,08,20,9.30
2015,01,18,08,21,9.70
2015,01,18,08,22,10.00
2015,01,18,08,23,10.20
2015,01,18,08,24,10.30
2015,01,18,08,25,10.30
2015,01,18,08,26,10.30
2015,01,18,08,27,10.30
2015,01,18,08,28,10.20
2015,01,18,08,29,10.20
2015,01,18,08,30,10.20
2015,01,18,08,31,10.20
2015,01,18,08,32,10.20
2015,01,18,08,33,10.20
2015,01,18,08,34,10.10
2015,01,18,08,35,10.10
2015,01,18,08,36,10.10
2015,01,18,08,37,10.10
2015,01,18,08,38,10.20
2015,01,18,08,39,10.10
2015,01,18,08,40,10.10
2015,01,18,08,41,10.10
2015,01,18,08,42,10.10
2015,01,18,08,43,10.00
2015,01,18,08,44,10.00
2015,01,18,08,45,9.90
2015,01,18,08,46,9.90
2015,01,18,08,47,9.90
2015,01,18,08,48,9.90
2015,01,18,08,49,9.90
2015,01,18,08,50,9.90
2015,01,18,08,51,10.00
2015,01,18,08,52,10.10
2015,01,18,08,53,10.20
2015,01,18,08,54,10.30
2015,01,18,08,55,10.40
2015,01,18,08,56,10.50
2015,01,18,08,57,10.50
2015,01,18,08,58,10.50
2015,01,18,08,59,10.50
2015,01,18,09,00,10.50
2015,01,18,09,01,10.50
2015,01,18,09,02,10.50
2015,01,18,09,03,10.50
2015,01,18,09,04,10.40
2015,01,18,09,05,10.40
2015,01,18,09,06,10.30
2015,01,18,09,07,10.30
2015,01,18,09,08,10.20
2015,01,18,09,09,10.20
2015,01,18,09,10,10.10
2015,01,18,09,11,10.10
2015,01,18,09,12,10.00
2015,01,18,09,13,10.00
2015,01,18,09,14,9.90
2015,01,18,09,15,9.90
2015,01,18,09,16,9.90
2015,01,18,09,17,9.90
2015,01,18,09,18,9.90
2015,01,18,09,19,9.90
2015,01,18,09,20,9.90
2015,01,18,09,21,10.00
2015,01,18,09,22,10.00
2015,01,18,09,23,10.00
2015,01,18,09,24,10.10
2015,01,18,09,25,10.10
2015,01,18,09,26,10.10
2015,01,18,09,27,10.10
2015,01,18,09,28,10.10
2015,01,18,09,29,10.20
2015,01,18,09,30,10.20
2015,01,18,09,31,10.20
2015,01,18,09,32,10.20
2015,01,18,09,33,10.10
2015,01,18,09,34,10.10
2015,01,18,09,35,10.20
2015,01,18,09,36,10.30
2015,01,18,09,37,10.40
2015,01,18,09,38,10.40
2015,01,18,09,39,10.50
2015,01,18,09,40,10.50
2015,01,18,09,41,10.40
2015,01,18,09,42,10.40
2015,01,18,09,43,10.50
2015,01,18,09,44,10.40
2015,01,18,09,45,10.40
2015,01,18,09,46,10.30
2015,01,18,09,47,10.30
2015,01,18,09,48,10.40
2015,01,18,09,49,10.40
2015,01,18,09,50,10.40
2015,01,18,09,51,10.40
2015,01,18,09,52,10.40
2015,01,18,09,53,10.50
2015,01,18,09,54,10.70
2015,01,18,09,55,10.70
2015,01,18,09,56,10.70
2015,01,18,09,57,10.80
2015,01,18,09,58,10.80
2015,01,18,09,59,10.90
2015,01,18,10,00,11.00
2015,01,18,10,01,11.00
2015,01,18,10,02,11.10
2015,01,18,10,03,11.10
2015,01,18,10,04,11.10
2015,01,18,10,05,11.10
2015,01,18,10,06,11.10
2015,01,18,10,07,11.10
2015,01,18,10,08,11.10
2015,01,18,10,09,11.30
2015,01,18,10,10,11.40
2015,01,18,10,11,11.50
2015,01,18,10,12,11.60
2015,01,18,10,13,11.70
2015,01,18,10,14,11.70
2015,01,18,10,15,11.70
2015,01,18,10,16,11.70
2015,01,18,10,17,11.80
2015,01,18,10,18,11.80
2015,01,18,10,19,11.80
2015,01,18,10,20,11.70
2015,01,18,10,21,11.70
2015,01,18,10,22,11.70
2015,01,18,10,23,11.70
2015,01,18,10,24,11.60
2015,01,18,10,25,11.60
2015,01,18,10,26,11.60
2015,01,18,10,27,11.50
2015,01,18,10,28,11.50
2015,01,18,10,29,11.50
2015,01,18,10,30,11.60
2015,01,18,10,31,11.60
2015,01,18,10,32,11.50
2015,01,18,10,33,11.50
2015,01,18,10,34,11.40
2015,01,18,10,35,11.30
2015,01,18,10,36,11.30
2015,01,18,10,37,11.30
2015,01,18,10,38,11.30
2015,01,18,10,39,11.40
2015,01,18,10,40,11.40
2015,01,18,10,41,11.40
2015,01,18,10,42,11.50
2015,01,18,10,43,11.50
2015,01,18,10,44,11.60
2015,01,18,10,45,11.60
2015,01,18,10,46,11.70
2015,01,18,10,47,11.70
2015,01,18,10,48,11.70
2015,01,18,10,49,11.60
2015,01,18,10,50,11.60
2015,01,18,10,51,11.60
2015,01,18,10,52,11.60
2015,01,18,10,53,11.60
2015,01,18,10,54,11.60
2015,01,18,10,55,11.70
2015,01,18,10,56,11.70
2015,01,18,10,57,11.70
2015,01,18,10,58,11.70
2015,01,18,10,59,11.60
2015,01,18,11,00,11.60
2015,01,18,11,01,11.60
2015,01,18,11,02,11.50
2015,01,18,11,03,11.40
2015,01,18,11,04,11.40
2015,01,18,11,05,11.40
2015,01,18,11,06,11.50
2015,01,18,11,07,11.60
2015,01,18,11,08,11.60
2015,01,18,11,09,11.50
2015,01,18,11,10,11.50
2015,01,18,11,11,11.40
2015,01,18,11,12,11.30
2015,01,18,11,13,11.20
2015,01,18,11,14,11.20
2015,01,18,11,15,11.20
2015,01,18,11,16,11.20
2015,01,18,11,17,11.20
2015,01,18,11,18,11.20
2015,01,18,11,19,11.10
2015,01,18,11,20,11.10
2015,01,18,11,21,11.00
2015,01,18,11,22,10.90
2015,01,18,11,23,10.80
2015,01,18,11,24,10.80
2015,01,18,11,25,10.70
2015,01,18,11,26,10.70
2015,01,18,11,27,10.60
2015,01,18,11,28,10.60
2015,01,18,11,29,10.60
2015,01,18,11,30,10.50
2015,01,18,11,31,10.50
2015,01,18,11,32,10.40
2015,01,18,11,33,10.40
2015,01,18,11,34,10.40
2015,01,18,11,35,10.40
2015,01,18,11,36,10.40
2015,01,18,11,37,10.40
2015,01,18,11,38,10.50
2015,01,18,11,39,10.60
2015,01,18,11,40,10.60
2015,01,18,11,41,10.60
2015,01,18,11,42,10.60
2015,01,18,11,43,10.60
2015,01,18,11,44,10.60
2015,01,18,11,45,10.60
2015,01,18,11,46,10.60
2015,01,18,11,47,10.60
2015,01,18,11,48,10.60
2015,01,18,11,49,10.60
2015,01,18,11,50,10.60
2015,01,18,11,51,10.70
2015,01,18,11,52,10.70
2015,01,18,11,53,10.70
2015,01,18,11,54,10.80
2015,01,18,11,55,10.80
2015,01,18,11,56,10.80
2015,01,18,11,57,10.80
2015,01,18,11,58,10.80
2015,01,18,11,59,10.70
2015,01,18,12,00,10.60
2015,01,18,12,01,10.50
2015,01,18,12,02,10.30
2015,01,18,12,03,10.20
2015,01,18,12,04,10.00
2015,01,18,12,05,9.80
2015,01,18,12,06,9.70
2015,01,18,12,07,9.50
2015,01,18,12,08,9.40
2015,01,18,12,09,9.30
2015,01,18,12,10,9.20
2015,01,18,12,11,9.10
2015,01,18,12,12,9.00
2015,01,18,12,13,8.90
2015,01,18,12,14,8.90
2015,01,18,12,15,8.80
2015,01,18,12,16,8.70
2015,01,18,12,17,8.70
2015,01,18,12,18,8.60
2015,01,18,12,19,8.60
2015,01,18,12,20,8.60
2015,01,18,12,21,8.50
2015,01,18,12,22,8.50
2015,01,18,12,23,8.50
2015,01,18,12,24,8.50
2015,01,18,12,25,8.50
2015,01,18,12,26,8.50
2015,01,18,12,27,8.50
2015,01,18,12,28,8.50
2015,01,18,12,29,8.50
2015,01,18,12,30,8.60
2015,01,18,12,31,8.60
2015,01,18,12,32,8.60
2015,01,18,12,33,8.60
2015,01,18,12,34,8.60
2015,01,18,12,35,8.60
2015,01,18,12,36,8.60
2015,01,18,12,37,8.60
2015,01,18,12,38,8.60
2015,01,18,12,39,8.70
2015,01,18,12,40,8.70
2015,01,18,12,41,8.70
2015,01,18,12,42,8.70
2015,01,18,12,43,8.80
2015,01,18,12,44,8.80
2015,01,18,12,45,8.90
2015,01,18,12,46,8.90
2015,01,18,12,47,8.90
2015,01,18,12,48,9.00
2015,01,18,12,49,9.10
2015,01,18,12,50,9.20
2015,01,18,12,51,9.20
2015,01,18,12,52,9.20
2015,01,18,12,53,9.30
2015,01,18,12,54,9.30
2015,01,18,12,55,9.20
2015,01,18,12,56,9.20
2015,01,18,12,57,9.20
2015,01,18,12,58,9.20
2015,01,18,12,59,9.20
2015,01,18,13,00,9.30
2015,01,18,13,01,9.30
2015,01,18,13,02,9.30
2015,01,18,13,03,9.40
2015,01,18,13,04,9.40
2015,01,18,13,05,9.40
2015,01,18,13,06,9.40
2015,01,18,13,07,9.40
2015,01,18,13,08,9.50
2015,01,18,13,09,9.50
2015,01,18,13,10,9.50
2015,01,18,13,11,9.40
2015,01,18,13,12,9.40
2015,01,18,13,13,9.40
2015,01,18,13,14,9.40
2015,01,18,13,15,9.40
2015,01,18,13,16,9.40
2015,01,18,13,17,9.40
2015,01,18,13,18,9.40
2015,01,18,13,19,9.40
2015,01,18,13,20,9.40
2015,01,18,13,21,9.40
2015,01,18,13,22,9.40
2015,01,18,13,23,9.40
2015,01,18,13,24,9.40
2015,01,18,13,25,9.40
2015,01,18,13,26,9.40
2015,01,18,13,27,9.40
2015,01,18,13,28,9.50
2015,01,18,13,29,9.50
2015,01,18,13,30,9.50
2015,01,18,13,31,9.50
2015,01,18,13,32,9.50
2015,01,18,13,33,9.40
2015,01,18,13,34,9.40
2015,01,18,13,35,9.40
2015,01,18,13,36,9.40
2015,01,18,13,37,9.30
2015,01,18,13,38,9.30
2015,01,18,13,39,9.30
2015,01,18,13,40,9.20
2015,01,18,13,41,9.20
2015,01,18,13,42,9.10
2015,01,18,13,43,9.10
2015,01,18,13,44,9.10
2015,01,18,13,45,9.10
2015,01,18,13,46,9.10
2015,01,18,13,47,9.20
2015,01,18,13,48,9.20
2015,01,18,13,49,9.20
2015,01,18,13,50,9.20
2015,01,18,13,51,9.10
2015,01,18,13,52,9.20
2015,01,18,13,53,9.30
2015,01,18,13,54,9.40
2015,01,18,13,55,9.50
2015,01,18,13,56,9.50
2015,01,18,13,57,9.50
2015,01,18,13,58,9.50
2015,01,18,13,59,9.50
2015,01,18,14,00,9.40
2015,01,18,14,01,9.40
2015,01,18,14,02,9.40
2015,01,18,14,03,9.30
2015,01,18,14,04,9.30
2015,01,18,14,05,9.30
2015,01,18,14,06,9.40
2015,01,18,14,07,9.50
2015,01,18,14,08,9.50
2015,01,18,14,09,9.60
2015,01,18,14,10,9.70
2015,01,18,14,11,9.80
2015,01,18,14,12,9.80
2015,01,18,14,13,9.90
2015,01,18,14,14,10.00
2015,01,18,14,15,10.00
2015,01,18,14,16,10.00
2015,01,18,14,17,10.00
2015,01,18,14,18,10.00
2015,01,18,14,19,10.10
2015,01,18,14,20,10.10
2015,01,18,14,21,10.00
2015,01,18,14,22,10.00
2015,01,18,14,23,10.00
2015,01,18,14,24,9.90
2015,01,18,14,25,9.90
2015,01,18,14,26,9.90
2015,01,18,14,27,9.90
2015,01,18,14,28,9.90
2015,01,18,14,29,9.90
2015,01,18,14,30,9.90
2015,01,18,14,31,9.90
2015,01,18,14,32,9.80
2015,01,18,14,33,9.80
2015,01,18,14,34,9.80
2015,01,18,14,35,9.80
2015,01,18,14,36,9.80
2015,01,18,14,37,9.80
2015,01,18,14,38,9.80
2015,01,18,14,39,9.80
2015,01,18,14,40,9.70
2015,01,18,14,41,9.70
2015,01,18,14,42,9.50
2015,01,18,14,43,9.40
2015,01,18,14,44,9.30
2015,01,18,14,45,9.20
2015,01,18,14,46,9.20
2015,01,18,14,47,9.20
2015,01,18,14,48,9.10
2015,01,18,14,49,9.10
2015,01,18,14,50,9.00
2015,01,18,14,51,9.00
2015,01,18,14,52,9.00
2015,01,18,14,53,8.90
2015,01,18,14,54,8.80
2015,01,18,14,55,8.70
2015,01,18,14,56,8.70
2015,01,18,14,57,8.70
2015,01,18,14,58,8.70
2015,01,18,14,59,8.60
2015,01,18,15,00,8.60
2015,01,18,15,01,8.60
2015,01,18,15,02,8.60
2015,01,18,15,03,8.70
2015,01,18,15,04,8.70
2015,01,18,15,05,8.70
2015,01,18,15,06,8.70
2015,01,18,15,07,8.70
2015,01,18,15,08,8.70
2015,01,18,15,09,8.60
2015,01,18,15,10,8.60
2015,01,18,15,11,8.70
2015,01,18,15,12,8.70
2015,01,18,15,13,8.60
2015,01,18,15,14,8.70
2015,01,18,15,15,8.80
2015,01,18,15,16,8.90
2015,01,18,15,17,9.00
2015,01,18,15,18,9.00
2015,01,18,15,19,9.10
2015,01,18,15,20,9.10
2015,01,18,15,21,9.10
2015,01,18,15,22,9.20
2015,01,18,15,23,9.20
2015,01,18,15,24,9.20
2015,01,18,15,25,9.20
2015,01,18,15,26,9.20
2015,01,18,15,27,9.20
2015,01,18,15,28,9.20
2015,01,18,15,29,9.20
2015,01,18,15,30,9.20
2015,01,18,15,31,9.20
2015,01,18,15,32,9.20
2015,01,18,15,33,9.10
2015,01,18,15,34,9.10
2015,01,18,15,35,9.10
2015,01,18,15,36,9.00
2015,01,18,15,37,9.00
2015,01,18,15,38,8.90
2015,01,18,15,39,8.90
2015,01,18,15,40,8.80
2015,01,18,15,41,8.80
2015,01,18,15,42,8.80
2015,01,18,15,43,8.70
2015,01,18,15,44,8.70
2015,01,18,15,45,8.60
2015,01,18,15,46,8.60
2015,01,18,15,47,8.60
2015,01,18,15,48,8.50
2015,01,18,15,49,8.40
2015,01,18,15,50,8.40
2015,01,18,15,51,8.40
2015,01,18,15,52,8.30
2015,01,18,15,53,8.30
2015,01,18,15,54,8.30
2015,01,18,15,55,8.20
2015,01,18,15,56,8.20
2015,01,18,15,57,8.20
2015,01,18,15,58,8.10
2015,01,18,15,59,8.10
2015,01,18,16,00,8.00
2015,01,18,16,01,8.00
2015,01,18,16,02,7.90
2015,01,18,16,03,7.90
2015,01,18,16,04,7.80
2015,01,18,16,05,7.80
2015,01,18,16,06,7.80
2015,01,18,16,07,7.70
2015,01,18,16,08,7.70
2015,01,18,16,09,7.70
2015,01,18,16,10,7.60
2015,01,18,16,11,7.50
2015,01,18,16,12,7.50
2015,01,18,16,13,7.40
2015,01,18,16,14,7.40
2015,01,18,16,15,7.30
2015,01,18,16,16,7.30
2015,01,18,16,17,7.30
2015,01,18,16,18,7.20
2015,01,18,16,19,7.20
2015,01,18,16,20,7.20
2015,01,18,16,21,7.10
2015,01,18,16,22,7.10
2015,01,18,16,23,7.10
2015,01,18,16,24,7.10
2015,01,18,16,25,7.10
2015,01,18,16,26,7.10
2015,01,18,16,27,7.10
2015,01,18,16,28,7.10
2015,01,18,16,29,7.10
2015,01,18,16,30,7.10
2015,01,18,16,31,7.10
2015,01,18,16,32,7.10
2015,01,18,16,33,7.10
2015,01,18,16,34,7.10
2015,01,18,16,35,7.10
2015,01,18,16,36,7.10
2015,01,18,16,37,7.10
2015,01,18,16,38,7.10
2015,01,18,16,39,7.10
2015,01,18,16,40,7.10
2015,01,18,16,41,7.10
2015,01,18,16,42,7.10
2015,01,18,16,43,7.10
2015,01,18,16,44,7.10
2015,01,18,16,45,7.10
2015,01,18,16,46,7.10
2015,01,18,16,47,7.10
2015,01,18,16,48,7.10
2015,01,18,16,49,7.10
2015,01,18,16,50,7.10
2015,01,18,16,51,7.10
2015,01,18,16,52,7.10
2015,01,18,16,53,7.10
2015,01,18,16,54,7.10
2015,01,18,16,55,7.10
2015,01,18,16,56,7.10
2015,01,18,16,57,7.00
2015,01,18,16,58,7.00
2015,01,18,16,59,7.00
2015,01,18,17,00,7.00
2015,01,18,17,01,7.00
2015,01,18,17,02,7.00
2015,01,18,17,03,7.00
2015,01,18,17,04,7.00
2015,01,18,17,05,7.00
2015,01,18,17,06,6.90
2015,01,18,17,07,6.90
2015,01,18,17,08,6.90
2015,01,18,17,09,6.90
2015,01,18,17,10,6.80
2015,01,18,17,11,6.80
2015,01,18,17,12,6.80
2015,01,18,17,13,6.70
2015,01,18,17,14,6.70
2015,01,18,17,15,6.70
2015,01,18,17,16,6.70
2015,01,18,17,17,6.70
2015,01,18,17,18,6.70
2015,01,18,17,19,6.70
2015,01,18,17,20,6.70
2015,01,18,17,21,6.70
2015,01,18,17,22,6.70
2015,01,18,17,23,6.70
2015,01,18,17,24,6.70
2015,01,18,17,25,6.60
2015,01,18,17,26,6.60
2015,01,18,17,27,6.60
2015,01,18,17,28,6.60
2015,01,18,17,29,6.60
2015,01,18,17,30,6.60
2015,01,18,17,31,6.60
2015,01,18,17,32,6.60
2015,01,18,17,33,6.70
2015,01,18,17,34,6.70
2015,01,18,17,35,6.80
2015,01,18,17,36,6.80
2015,01,18,17,37,6.80
2015,01,18,17,38,6.80
2015,01,18,17,39,6.90
2015,01,18,17,40,6.80
2015,01,18,17,41,6.90
2015,01,18,17,42,6.90
2015,01,18,17,43,6.90
2015,01,18,17,44,6.90
2015,01,18,17,45,6.90
2015,01,18,17,46,6.90
2015,01,18,17,47,6.90
2015,01,18,17,48,6.90
2015,01,18,17,49,6.90
2015,01,18,17,50,6.90
2015,01,18,17,51,6.90
2015,01,18,17,52,6.90
2015,01,18,17,53,6.90
2015,01,18,17,54,6.90
2015,01,18,17,55,6.90
2015,01,18,17,56,6.90